#timestamp,LO_Frequency,Hit,StdDev 
1663056015.7,286046996.7,Y
1663056035.5,286047000.6,P
1663056055.3,286047001.0,N
1663056075.2,286047000.0,N
1663056095.0,286047002.5,N
1663056095.9,286047002.5,N
1663056115.8,286047002.3,N
1663056135.6,286047001.0,N
1663056155.4,286047001.1,N
1663056175.3,286047000.9,N
1663056195.1,286046999.4,N
1663056215.9,286046998.7,N
1663056235.7,286046999.2,N
1663056255.5,286046996.5,N
1663056275.4,286046999.4,N
1663056295.2,286046999.2,N
1663056315.0,286046999.1,N
1663056315.9,286046999.1,N
1663056335.8,286046999.6,N
1663056355.6,286046999.0,N
1663056375.5,286046999.4,N
1663056395.3,286046996.9,N
1663056415.1,286046997.4,N
1663056435.9,286046997.5,N
1663056455.7,286046997.0,N
1663056475.6,286046996.5,N
1663056495.4,286046999.4,N
1663056515.2,286046999.6,N
1663056535.1,286046999.4,N
1663056536.0,286046999.4,N
1663056555.8,286046998.9,N
1663056575.6,286046996.9,N
1663056595.5,286046997.1,N
1663056615.3,286046997.8,N
1663056635.2,286046995.2,N
1663056655.9,286046996.1,N
1663056675.7,286046996.1,N
1663056695.6,286046997.8,N
1663056715.4,286046996.7,N
1663056735.3,286046996.8,N
1663056755.1,286046997.0,N
1663056756.0,286046997.0,N
1663056775.8,286046996.6,N
1663056795.7,286046996.9,N
1663056815.5,286046997.3,N
1663056835.3,286046999.6,N
1663056855.2,286046999.4,N
1663056875.0,286046999.6,N
1663056875.9,286046999.6,N
1663056895.8,286046997.5,N
1663056915.6,286046997.2,N
1663056935.4,286046999.3,N
1663056955.3,286046998.9,N
1663056975.1,286046998.9,N
1663056995.9,286046999.3,N
1663057015.7,286046998.1,N
1663057035.5,286047000.6,N
1663057055.4,286046998.2,N
1663057075.2,286047000.8,N
1663057095.0,286046999.0,N
1663057095.9,286046999.0,N
1663057115.8,286046998.7,N
1663057135.6,286046996.9,N
1663057155.5,286046999.5,N
1663057175.3,286046999.2,N
1663057195.1,286046996.6,N
1663057215.9,286046996.8,N
1663057235.7,286046997.2,N
1663057255.5,286046997.8,N
1663057275.4,286046995.5,Y
1663057295.2,286046999.4,P
1663057315.1,286046996.6,P
1663057316.0,286046996.6,N
1663057335.8,286046996.5,N
1663057355.6,286046997.8,N
1663057375.5,286046994.9,Y
1663057395.3,286046998.3,P
1663057415.2,286047001.1,N
1663057435.9,286046998.8,N
1663057455.7,286046998.4,N
1663057475.6,286046998.1,N
1663057495.4,286047001.2,N
1663057515.3,286046998.3,N
1663057535.1,286046998.3,N
1663057536.0,286046998.3,N
1663057555.8,286047001.1,N
1663057575.7,286047000.2,N
1663057595.5,286047001.2,N
1663057615.3,286046998.1,N
1663057635.2,286047001.1,N
1663057655.0,286047000.6,N
1663057655.9,286047000.6,N
1663057675.8,286047000.6,N
1663057695.6,286046998.5,N
1663057715.4,286046998.5,N
1663057735.3,286046998.2,N
1663057755.1,286046998.7,N
1663057775.8,286046998.7,N
1663057795.7,286046999.1,N
1663057815.5,286046998.4,N
1663057835.4,286046996.6,N
1663057855.2,286046999.4,N
1663057875.0,286047001.2,N
1663057875.9,286047001.2,N
1663057895.8,286046998.5,N
1663057915.6,286046999.0,N
1663057935.4,286047000.8,N
1663057955.3,286047001.1,N
1663057975.1,286047000.8,N
1663057995.9,286047000.6,N
1663058015.7,286047000.4,N
1663058035.5,286047000.1,N
1663058055.4,286047002.7,N
1663058075.2,286047002.7,N
1663058095.1,286047002.6,N
1663058096.0,286047002.6,N
1663058115.8,286047002.3,N
1663058135.6,286047001.9,N
1663058155.5,286047001.7,N
1663058175.3,286047002.0,N
1663058195.1,286047002.3,N
1663058215.9,286047001.9,N
1663058235.7,286047002.2,N
1663058255.6,286047002.7,N
1663058275.4,286047002.6,N
1663058295.2,286047002.0,N
1663058315.1,286047001.7,N
1663058316.0,286047001.7,N
1663058335.8,286047003.1,N
1663058355.6,286047004.1,N
1663058375.5,286047003.2,N
1663058395.3,286047003.5,N
1663058415.2,286047003.8,Y
1663058435.9,286047004.3,P
1663058455.7,286047001.5,N
1663058475.6,286047001.8,N
1663058495.4,286047001.3,N
1663058515.2,286047001.6,N
1663058535.1,286047001.9,N
1663058536.0,286047001.9,N
1663058555.8,286047002.2,N
1663058575.7,286047001.4,N
1663058595.5,286047001.6,N
1663058615.3,286047002.0,N
1663058635.2,286047001.5,N
1663058655.0,286047001.8,N
1663058655.9,286047001.8,N
1663058675.8,286047003.4,Y
1663058695.6,286047002.5,P
1663058715.4,286047002.0,P
1663058735.3,286047002.2,P
1663058755.1,286047000.1,N
1663058775.8,286047000.0,N
1663058795.7,286047001.2,N
1663058815.5,286047000.6,N
1663058835.3,286046999.7,N
1663058855.2,286047000.2,N
1663058875.0,286047000.4,N
1663058875.9,286047000.4,N
1663058895.8,286047000.1,N
1663058915.6,286047002.1,N
1663058935.4,286047002.1,N
1663058955.3,286047001.9,N
1663058975.1,286047004.2,Y
1663058995.9,286047002.2,P
1663059015.7,286047002.4,P
1663059035.5,286047002.1,P
1663059055.4,286047002.2,Y
1663059075.2,286046998.3,P
1663059095.0,286046998.3,N
1663059095.9,286046998.3,N
1663059115.8,286046998.1,N
1663059135.6,286047001.2,N
1663059155.5,286046998.5,N
1663059175.3,286046998.5,N
1663059195.1,286047001.2,N
1663059215.9,286047000.7,N
1663059235.7,286047011.9,Y
1663059255.6,286047000.3,P
1663059275.4,286047000.2,N
1663059295.2,286047001.0,N
1663059315.1,286047000.5,N
1663059316.0,286047000.5,N
1663059335.8,286047000.9,N
1663059355.7,286047000.6,N
1663059375.5,286047000.1,N
1663059395.3,286047000.3,N
1663059415.2,286047000.4,N
1663059435.0,286046999.9,N
1663059435.9,286046999.9,N
1663059455.7,286047002.8,Y
1663059475.6,286047000.4,P
1663059495.4,286047000.3,P
1663059515.3,286047000.5,P
1663059535.1,286046999.7,Y
1663059555.8,286047000.6,P
1663059575.7,286047000.4,P
1663059595.5,286047001.2,P
